Simultaneous Nadir Overpasses (SNOs) Predictions

Prediction of SNOs between METOP-A and TERRA Satellite Orbit:

Table of predicted SNOs for the next 14.0 days since TLE Epoch: 12/14/2014
Index Date (METOP-A) Time (METOP-A) Lat,Lon (METOP-A) SZA (METOP-A ) Date (TERRA) Time (TERRA) Lat,Lon (TERRA) SZA (TERRA ) Distance(km) Time Diff (sec)
1 12/15/2014 23:46:38 -81.30, 50.42 72.67 12/15/2014 23:46:52 -81.30, 50.54 72.66 1.87 14
2 12/16/2014 00:37:17 81.31,-141.67 107.40 12/16/2014 00:36:18 81.31,-141.67 107.37 0.07 59
3 12/18/2014 19:20:59 -81.30, 117.07 72.59 12/18/2014 19:21:14 -81.31, 117.07 72.58 0.39 15
4 12/18/2014 20:11:38 81.31, -75.04 107.49 12/18/2014 20:10:40 81.32, -75.14 107.45 1.72 58
5 12/21/2014 14:55:20 -81.30,-176.76 72.61 12/21/2014 14:55:40 -81.29,-176.81 72.61 1.20 20
6 12/21/2014 15:45:59 81.31, -8.88 107.46 12/21/2014 15:45:06 81.30, -9.01 107.41 2.31 53
7 12/24/2014 10:29:41 -81.30,-110.26 72.66 12/24/2014 10:30:10 -81.30,-110.33 72.66 1.10 29
8 12/24/2014 11:20:20 81.31, 57.60 107.40 12/24/2014 11:19:36 81.31, 57.48 107.37 2.14 44
9 12/27/2014 06:04:02 -81.30, -43.85 72.79 12/27/2014 06:04:44 -81.31, -43.87 72.77 0.50 42




NCC Satellite Simultaneous Nadir Overpasses (SNOs) Prediction Service
